EHI
0 0 0 0 0 0 0 0 0 0 0 0 0 0 0 0 0 0 0 0 0 0 0 0 0 0 0 0 0 0 0 0 0 0 0 1 3 3
0 0 0 0 0 0 0 0 0 0 0 0 0 0 0 0 0 0 0 0 0 0 0 0 0 0 0 0 0 0 0 0 0 0 0 0 1 1
0 0 0 0 0 0 0 0 0 0 0 0 0 0 0 0 0 0 0 0 0 0 0 0 0 0 0 0 0 0 0 0 0 0 0 0 0 0
0 0 0 0 0 0 0 0 0 0 0 0 0 0 0 0 0 0 0 0 0 0 0 0 0 0 0 0 0 0 0 0 0 0 0 0 0 0
0 0 0 0 0 0 0 0 0 0 0 0 0 0 0 0 0 0 0 0 0 0 0 0 0 0 0 0 0 0 0 0 0 0 0 0 0 0
0 0 0 0 0 0 0 0 0 0 0 0 0 0 0 0 0 0 0 0 0 0 0 0 0 0 0 0 0 0 0 0 0 0 0 0 0 0
0 0 0 0 0 0 0 0 0 0 0 0 0 0 0 0 0 0 0 0 0 0 0 0 0 0 0 0 0 0 0 0 0 0 0 0 0 0
0 0 0 0 0 0 0 0 0 0 0 0 0 0 0 0 0 0 0 0 0 0 0 0 0 0 0 0 0 0 0 0 0 0 0 0 0 0
0 0 0 0 0 0 0 0 0 0 0 0 0 0 0 0 0 0 0 0 0 0 0 0 0 0 0 0 0 0 0 0 0 0 0 0 0 0
0 0 0 0 0 0 0 0 0 0 0 0 0 0 0 0 0 0 0 0 0 0 0 0 0 0 0 0 0 0 0 0 0 0 0 0 0 0
0 0 0 0 0 0 0 0 0 0 0 0 0 0 0 0 0 0 0 0 0 0 0 0 0 0 0 0 0 0 0 0 0 0 0 0 0 0
0 0 0 0 0 0 0 0 0 0 0 0 0 0 0 0 0 0 0 0 0 0 0 0 0 0 0 0 0 0 0 0 0 0 0 0 0 0
0 0 0 0 0 0 0 0 0 0 0 0 0 0 0 0 0 0 0 0 0 0 0 0 0 0 0 0 0 0 0 0 0 0 0 0 0 0
0 0 0 0 0 0 0 0 0 0 0 0 0 0 0 0 0 0 0 0 0 0 0 0 0 0 0 0 0 0 0 0 0 0 0 0 0 0
0 0 0 0 0 0 0 0 0 0 0 0 0 0 0 0 0 0 0 0 0 0 0 0 0 0 0 0 0 0 0 0 0 0 0 0 0 0
0 0 0 0 0 0 0 0 0 0 0 0 0 0 0 0 0 0 0 0 0 0 0 0 0 0 0 0 0 0 0 0 0 0 0 0 0 0
0 0 0 0 0 0 0 0 0 0 0 0 0 0 0 0 0 0 0 0 0 0 0 0 0 0 0 0 0 0 0 0 0 0 0 0 0 0
0 0 0 0 0 0 0 0 0 0 0 0 0 0 0 0 0 0 0 0 0 0 0 0 0 0 0 0 0 0 0 0 0 0 0 0 0 0
0 0 0 0 0 0 0 0 0 0 0 0 0 0 0 0 0 0 0 0 0 0 0 0 0 0 0 0 0 0 0 0 0 0 0 0 0 0
0 0 0 0 0 0 0 0 0 0 0 0 0 0 0 0 0 0 0 0 0 0 0 0 0 0 0 0 0 0 0 0 0 0 0 0 0 0
0 0 0 0 0 0 0 0 0 0 0 0 0 0 0 0 0 0 0 0 0 0 0 0 0 0 0 0 0 0 0 0 0 0 0 0 0 0
0 0 0 0 0 0 0 0 0 0 0 0 0 0 0 0 0 0 0 0 0 0 0 0 0 0 0 0 0 0 0 0 0 0 0 0 0 0
0 0 0 0 0 0 0 0 0 0 0 0 0 0 0 0 0 0 0 0 0 0 0 0 0 0 0 0 0 0 0 0 0 0 0 0 0 0
Wind_Speed
3 2 2 2 2 2 2 3 3 3 2 2 2 3 3 2 2 3 1 3 1 2 3 3 3 3 3 3 4 4 4 4 4 5 6 8 9 10
2 3 3 2 2 2 2 2 3 3 3 2 3 3 3 3 1 3 3 1 2 3 3 3 4 4 4 4 3 3 4 4 4 4 6 7 8 9
2 2 2 3 2 2 2 2 2 3 3 3 3 3 4 4 2 3 3 3 1 2 2 4 4 4 4 4 4 4 4 5 5 5 5 6 7 8
3 3 3 2 3 3 3 3 3 3 4 4 4 4 4 5 4 4 3 3 3 1 2 4 4 5 5 5 5 5 5 5 5 5 6 7 8 9
4 4 4 4 4 3 4 4 3 3 3 4 4 4 4 4 4 4 4 3 4 2 3 4 4 5 6 6 6 6 6 5 5 5 6 7 8 9
4 4 4 4 5 5 4 4 4 4 4 4 4 4 4 4 4 4 4 3 4 4 3 3 3 5 6 6 6 6 6 6 6 6 6 6 7 8
4 4 4 5 6 6 5 5 5 5 4 4 4 5 4 4 4 4 5 5 5 4 4 4 4 4 5 6 7 7 6 6 7 6 6 6 6 7
5 5 4 3 3 3 4 6 7 7 7 6 5 6 6 5 4 5 5 5 5 3 4 5 5 5 5 4 4 6 7 8 8 8 8 8 7 7
5 5 4 4 5 5 4 6 6 7 8 9 9 8 8 6 6 7 6 7 7 5 5 6 5 6 5 4 5 7 8 8 9 9 9 9 8 8
5 5 5 6 6 8 8 7 7 6 6 7 8 8 8 8 8 8 8 8 8 6 6 7 6 6 5 5 6 8 8 8 9 9 9 9 9 9
5 5 6 6 7 10 8 8 8 7 4 6 8 9 9 9 8 7 7 7 8 7 6 7 7 6 6 6 6 9 10 10 10 10 10 10 10 10
5 5 4 6 8 10 9 8 9 8 9 7 8 9 9 8 10 10 8 8 8 7 6 6 7 6 6 6 5 5 6 8 10 11 11 11 10 8
5 5 4 5 8 10 11 9 9 10 10 9 8 7 7 6 7 7 7 8 9 8 6 6 7 7 7 6 5 5 6 5 6 7 9 11 11 9
6 6 5 8 10 11 9 8 10 11 8 7 7 7 7 6 6 7 8 9 9 11 9 9 8 7 8 8 7 5 6 6 6 6 6 8 10 11
6 7 9 10 11 10 7 9 10 8 7 7 7 7 7 7 7 7 8 8 10 10 10 11 10 8 8 9 8 7 6 6 6 6 6 6 6 6
7 7 9 10 9 9 8 7 6 6 7 7 8 7 7 7 7 7 7 6 7 8 9 11 10 10 9 10 9 8 7 6 6 6 6 6 6 6
9 8 7 7 7 7 7 6 6 6 6 7 7 7 7 7 7 7 7 7 8 8 7 6 7 7 9 9 9 9 7 7 6 6 6 6 6 7
9 8 7 7 8 7 8 7 7 7 7 7 7 8 8 8 8 7 7 8 9 9 8 6 5 5 6 7 8 9 8 7 6 6 7 7 7 6
8 8 8 8 8 8 8 8 8 8 8 8 8 8 8 8 8 8 8 8 9 9 8 6 6 7 8 9 7 7 8 7 6 6 7 7 7 6
7 8 8 8 8 8 8 8 8 8 8 8 9 9 9 9 9 9 9 10 9 9 9 8 7 7 8 8 7 6 7 8 7 7 6 5 5 4
8 8 8 8 8 9 9 8 9 9 9 9 9 9 9 9 10 10 10 11 10 9 9 8 7 6 6 5 6 7 6 6 7 7 6 6 6 6
8 8 8 9 9 9 9 9 9 9 10 9 9 9 9 9 10 11 10 10 9 9 10 8 6 5 6 7 8 8 6 5 5 7 8 8 7 7
9 9 9 9 9 8 9 10 11 10 9 9 9 9 9 9 9 9 10 10 9 9 10 8 6 6 7 7 7 7 8 7 5 4 5 5 5 5
Wind_Direction
358 357 350 357 342 343 326 313 309 312 330 357 345 356 335 339 341 298 306 83 349 301 295 294 289 279 272 262 246 237 246 254 245 234 229 215 206 204
346 344 343 344 354 339 322 314 313 307 312 336 329 328 336 311 325 309 315 168 237 257 270 277 277 272 270 266 261 238 229 236 247 246 234 217 206 205
347 342 339 339 327 320 318 314 303 302 298 312 316 317 311 308 305 301 296 283 256 198 259 276 270 260 255 251 252 248 236 231 236 239 235 223 213 209
344 338 337 331 318 313 310 303 300 296 294 306 308 313 314 316 308 294 290 288 292 186 227 262 270 263 251 244 245 245 240 236 234 234 230 226 220 215
336 333 331 324 314 316 304 301 302 298 289 286 299 309 301 304 305 293 285 288 285 257 219 230 250 259 253 243 239 239 237 236 234 234 232 225 217 213
333 330 331 330 324 321 311 309 306 297 290 286 289 293 295 299 293 291 288 276 277 278 272 261 243 236 240 238 233 233 233 233 234 233 231 225 216 213
330 331 343 345 343 328 320 315 309 297 291 288 289 291 289 289 290 294 291 289 279 269 271 264 253 251 235 226 225 227 228 226 227 230 229 223 218 216
330 327 326 317 324 295 299 302 301 297 298 292 287 286 292 294 295 284 287 287 283 268 272 273 266 263 257 251 222 215 223 225 222 221 219 215 214 215
327 328 329 329 318 320 296 259 261 256 265 281 285 288 292 297 292 282 278 281 285 291 282 273 262 258 255 246 209 216 224 226 223 219 216 214 213 215
320 323 324 328 343 330 314 306 304 297 286 274 280 287 292 295 287 284 286 282 279 269 263 271 267 264 260 251 207 212 221 227 226 221 218 215 214 216
321 326 326 327 350 328 309 305 302 301 281 262 279 281 284 282 279 273 268 265 269 266 252 260 266 267 262 252 225 206 218 224 227 225 222 217 215 216
319 313 333 333 333 323 311 306 302 307 306 292 272 262 262 258 247 253 260 263 269 271 257 253 263 266 264 250 242 226 223 222 222 224 223 218 214 225
314 313 328 338 319 312 305 302 308 307 298 293 290 286 280 275 266 259 257 259 264 265 268 259 265 262 264 268 256 246 245 241 229 226 221 215 211 222
307 309 323 326 310 299 296 303 301 293 286 287 286 286 286 284 282 281 275 265 264 269 272 268 264 263 264 265 264 251 246 248 246 241 232 210 213 218
302 313 306 298 294 285 278 283 284 281 284 285 287 290 293 296 294 286 280 275 272 268 266 262 258 259 259 262 265 260 254 249 248 246 239 228 227 223
298 297 282 274 273 281 283 276 278 289 292 289 291 292 294 291 286 284 281 278 274 271 265 259 254 252 255 259 261 258 254 250 243 244 243 242 237 232
308 295 292 293 293 294 294 294 293 290 284 284 286 288 289 286 285 287 282 276 273 275 271 265 263 259 259 260 259 254 253 253 249 247 242 242 243 239
294 286 289 291 294 297 298 298 295 294 293 288 287 287 286 286 286 283 281 276 273 272 269 264 264 267 264 258 249 255 253 252 249 246 248 244 245 242
278 284 289 293 295 295 295 295 295 294 295 290 286 286 287 285 284 283 280 277 276 276 270 258 251 253 261 265 258 235 249 250 245 244 244 244 248 243
279 287 290 292 293 292 292 292 292 292 291 289 287 284 284 284 282 280 279 278 276 277 276 264 250 248 256 269 276 274 249 251 245 242 241 246 259 253
289 289 289 290 290 289 289 291 290 288 287 286 285 283 283 283 283 283 283 281 275 273 271 269 269 258 262 271 268 263 256 243 256 256 246 240 248 241
289 289 289 289 291 290 289 288 286 282 282 281 283 283 281 280 281 281 282 281 277 276 276 273 272 262 249 250 259 265 264 255 252 255 258 254 250 239
292 292 291 291 290 290 288 287 286 284 282 282 282 282 280 279 279 278 277 276 276 276 278 274 268 266 258 252 257 262 262 260 255 253 258 252 244 241